New Bedford, MA

8:14 AM EDT on August 17, 2017 (GMT -0400)
New Bedford Regional

Weather History for KEWB - April, 2012

Change the Weather History Date:

Monday, April 16, 2012

  Actual Average Record
Temperature  
Mean Temperature 66 °F -  
Max Temperature 78 °F 55 °F 82 °F (2017)
Min Temperature 53 °F 40 °F 26 °F (2005)
Growing Degree Days 16 (Base 50)    
Moisture  
Dew Point 53 °F    
Average Humidity 73    
Maximum Humidity 94    
Minimum Humidity 46    
Precipitation  
Precipitation 0.00 in - - ()
Sea Level Pressure  
Sea Level Pressure 29.99 in    
Wind  
Wind Speed 5 mph (SSE)    
Max Wind Speed 12 mph    
Max Gust Speed -    
Visibility 8 miles    
Events      
Averages and records for this station are not official NWS values.
T = Trace of Precipitation, MM = Missing Value Source: NWS Daily Summary

Daily Weather History Graph

Daily Weather History Graph

Search for Another Location

Airport or City:

Trip Planner

Search our weather history database for the weather conditions in past years. The results will help you decide how hot, cold, wet, or windy it might be!

Date:

Astronomy

Apr. 16, 2012 Rise Set
Actual Time 6:01 AM EDT 7:26 PM EDT
Civil Twilight 5:32 AM EDT 7:55 PM EDT
Nautical Twilight 4:57 AM EDT 8:30 PM EDT
Astronomical Twilight 4:21 AM EDT 9:07 PM EDT
Moon 3:32 AM EDT (4/16) 3:14 PM EDT (4/16)
Length of Visible Light 14h 22m
Length of Day
13h 24m
Waning Crescent, 19% of the Moon is Illuminated
Apr 16
Waning Crescent
Apr 21
New
Apr 29
First Quarter
May 5
Full
May 12
Last Quarter

Hourly Weather History & Observations

Time (EDT) Temp. Dew Point Humidity Pressure Visibility Wind Dir Wind Speed Gust Speed Precip Events Conditions
12:53 AM 57.0 °F 53.1 °F 87% 30.01 in 8.0 mi Calm Calm - 0.00 in   Mostly Cloudy
1:53 AM 57.9 °F 53.1 °F 84% 29.99 in 8.0 mi Calm Calm - N/A   Overcast
2:53 AM 59.0 °F 53.1 °F 81% 29.99 in 9.0 mi Calm Calm - N/A   Overcast
3:53 AM 59.0 °F 54.0 °F 83% 29.98 in 9.0 mi Calm Calm - N/A   Overcast
4:53 AM 57.9 °F 53.1 °F 84% 29.99 in 9.0 mi SSW 3.5 mph - N/A   Overcast
5:53 AM 55.9 °F 52.0 °F 87% 30.00 in 7.0 mi East 4.6 mph - N/A   Scattered Clouds
6:53 AM 55.0 °F 51.1 °F 86% 30.03 in 5.0 mi SE 5.8 mph - N/A   Partly Cloudy
7:53 AM 59.0 °F 51.1 °F 75% 30.02 in 6.0 mi ESE 4.6 mph - N/A   Haze
8:53 AM 62.1 °F 51.1 °F 67% 30.03 in 7.0 mi East 5.8 mph - N/A   Clear
9:53 AM 66.9 °F 53.1 °F 61% 30.02 in 9.0 mi SE 8.1 mph - N/A   Clear
10:53 AM 70.0 °F 54.0 °F 57% 30.03 in 9.0 mi SE 8.1 mph - N/A   Clear
11:53 AM 77.0 °F 55.9 °F 48% 30.02 in 10.0 mi SSE 9.2 mph - N/A   Clear
12:53 PM 78.1 °F 55.9 °F 46% 30.01 in 10.0 mi South 10.4 mph - N/A   Clear
1:53 PM 75.0 °F 55.0 °F 50% 29.99 in 10.0 mi SE 11.5 mph - N/A   Clear
2:53 PM 75.0 °F 55.0 °F 50% 29.99 in 10.0 mi SSE 10.4 mph - N/A   Clear
3:53 PM 73.0 °F 55.0 °F 53% 29.98 in 10.0 mi South 10.4 mph - N/A   Clear
4:53 PM 71.1 °F 55.9 °F 59% 29.96 in 10.0 mi SSW 11.5 mph - N/A   Clear
5:53 PM 69.1 °F 55.0 °F 61% 29.96 in 10.0 mi SSE 9.2 mph - N/A   Clear
6:53 PM 62.1 °F 53.1 °F 72% 29.97 in 8.0 mi SSE 8.1 mph - N/A   Clear
7:53 PM 57.0 °F 52.0 °F 83% 29.97 in 7.0 mi SSW 6.9 mph - N/A   Clear
8:53 PM 55.0 °F 51.1 °F 86% 29.98 in 6.0 mi South 5.8 mph - N/A   Clear
9:53 PM 53.1 °F 51.1 °F 93% 29.98 in 5.0 mi South 6.9 mph - N/A   Scattered Clouds
10:02 PM 53.6 °F 51.8 °F 94% 29.98 in 4.0 mi South 6.9 mph - N/A   Mostly Cloudy
10:53 PM 53.1 °F 51.1 °F 93% 29.96 in 4.0 mi South 9.2 mph - N/A   Overcast
11:53 PM 53.1 °F 51.1 °F 93% 29.96 in 4.0 mi South 6.9 mph - N/A   Overcast